Location: Gugi
(45.4667°N, 11.1000°E)
Time: 18:56:11
(UTC+00:00)

Cosmos 1371 Rocket - Pass Details

Date: 17 November 2019
Orbit: 755 x 789 km, 74.0° (Epoch: 07 December)

Event Time Altitude Azimuth Distance (km) Brightness Sun altitude
Rises 17:09:12 0° 342° (NNW) 3,235 7.3 -14.9°
Reaches altitude 10° 17:11:40 10° 348° (NNW) 2,301 6.5 -15.3°
Maximum altitude 17:16:43 48° 63° (ENE) 982 4.1 -16.2°
Drops below altitude 10° 17:21:42 10° 138° (SE) 2,276 6.1 -17.1°
Enters shadow 17:22:52 - 142° (SE) 2,715 6.6 -17.3°
